Location: *
(39.6167°S, 171.5333°W)
Time: 18:01:04
(UTC+00:00)

FALCON 9 DEB - Pass Details

Date: 13 May 2021
Orbit: 364 x 378 km, 53.0° (Epoch: 19 June)

Event Time Altitude Azimuth Distance (km) Brightness Sun altitude
Exits shadow 17:34:32 11° 224° (SW) 1,390 5.2 -9.5°
Maximum altitude 17:37:36 63° 142° (SE) 442 3.2 -8.9°
Drops below altitude 10° 17:40:46 10° 59° (ENE) 1,417 7.3 -8.3°
Sets 17:42:49 0° 56° (NE) 2,263 8.5 -8.0°
